DW8587 Weather Reports


Display with metric or nautical units.
time (UTC)temp
F
wind
direction
speed
MPH
gust
MPH
rain 1hr
in
rain 24hr
in
rain mn
in
humidity
%
barometer
mb
20221210050048 37 329 0.0 2.0 0.00 0.28 0.00 93 999.8
20221210044544 37 329 0.0 2.0 0.00 0.31 0.00 93 999.9
20221210043047 37 252 0.0 3.0 0.00 0.31 0.00 93 1000.0
20221210041541 37 309 0.0 2.0 0.00 0.31 0.00 93 999.9
20221210040040 37 325 0.0 2.0 0.00 0.31 0.00 93 999.7
20221210034539 37 347 0.0 1.0 0.00 0.32 0.00 93 999.7
20221210033037 37 347 0.0 2.0 0.00 0.32 0.00 93 999.7
20221210031535 37 347 0.0 1.0 0.00 0.32 0.00 93 999.9
20221210030035 37 347 1.0 5.0 0.00 0.32 0.00 93 1000.1
20221210024533 37 34 3.0 4.0 0.00 0.33 0.00 93 1000.2
20221210023030 37 32 1.0 4.0 0.00 0.33 0.00 93 1000.3
20221210021528 37 184 0.0 1.0 0.00 0.33 0.00 93 1000.5
20221210020028 37 184 0.0 1.0 0.00 0.33 0.00 93 1000.5
20221210014529 37 184 0.0 3.0 0.00 0.35 0.00 93 1000.6
20221210013026 37 296 0.0 2.0 0.00 0.35 0.00 93 1000.6
20221210011526 37 296 0.0 1.0 0.00 0.35 0.00 93 1000.5
20221210010034 37 296 0.0 2.0 0.00 0.35 0.00 93 1000.6
20221210004528 37 297 0.0 1.0 0.00 0.37 0.00 93 1000.5
20221210003027 37 172 0.0 1.0 0.00 0.37 0.00 93 1000.5
20221210001521 37 172 0.0 1.0 0.00 0.37 0.00 93 1000.7
20221210000023 37 172 0.0 1.0 0.00 0.37 0.00 93 1000.7
20221209234519 37 172 0.0 1.0 0.00 0.37 0.00 93 1000.8
20221209233019 37 172 0.0 2.0 0.00 0.37 0.00 93 1001.1
20221209231514 37 175 0.0 2.0 0.00 0.37 0.00 92 1001.1
20221209230015 37 175 0.0 2.0 0.00 0.37 0.00 92 1001.2
20221209224512 37 229 0.0 1.0 0.00 0.37 0.37 93 1001.3
20221209223015 37 229 0.0 1.0 0.00 0.37 0.37 92 1001.3
20221209221513 37 229 0.0 2.0 0.00 0.37 0.37 92 1001.4
20221209220011 37 229 0.0 3.0 0.00 0.37 0.37 92 1001.4
20221209214509 37 218 0.0 3.0 0.00 0.37 0.37 92 1001.5
20221209213016 38 226 0.0 2.0 0.00 0.37 0.37 92 1001.5
20221209211509 38 208 1.0 3.0 0.00 0.37 0.37 92 1001.3
20221209210011 38 240 0.0 2.0 0.00 0.37 0.37 92 1001.2
20221209204522 38 306 0.0 1.0 0.00 0.37 0.37 92 1001.3
20221209203012 38 209 1.0 5.0 0.00 0.37 0.37 92 1001.1
20221209201506 38 213 1.0 3.0 0.00 0.37 0.37 92 1001.0
20221209200010 38 312 0.0 3.0 0.00 0.37 0.37 92 1000.9
20221209194507 38 317 0.0 6.0 0.00 0.37 0.37 92 1000.9
20221209193004 38 237 1.0 3.0 0.00 0.37 0.37 92 1001.2
20221209191504 38 252 0.0 3.0 0.00 0.37 0.37 92 1001.2
20221209190003 39 252 1.0 4.0 0.00 0.37 0.37 92 1001.4
20221209184501 39 289 0.0 1.0 0.00 0.37 0.37 92 1001.2
20221209183003 39 307 1.0 3.0 0.00 0.37 0.37 92 1001.0
20221209181501 38 262 1.0 3.0 0.00 0.37 0.37 92 1000.8
20221209180100 38 276 0.0 1.0 0.00 0.37 0.37 92 1000.9
20221209174602 38 276 0.0 2.0 0.00 0.37 0.37 92 1001.0
20221209173109 38 276 0.0 1.0 0.00 0.37 0.37 92 1001.1
20221209171606 38 276 0.0 1.0 0.00 0.37 0.37 91 1000.9
20221209171501 38 276 0.0 1.0 0.00 0.37 0.37 91 1000.9
20221209170104 38 337 0.0 1.0 0.00 0.37 0.37 91 1000.9
20221209164612 39 346 1.0 3.0 0.00 0.37 0.37 92 1000.9
20221209163124 38 320 0.0 1.0 0.00 0.37 0.37 91 1001.0
20221209161606 39 320 0.0 2.0 0.00 0.37 0.37 91 1001.1
20221209160058 38 320 0.0 2.0 0.00 0.37 0.37 91 1001.0
20221209154549 39 320 0.0 1.0 0.00 0.37 0.37 91 1000.9
20221209153035 39 298 0.0 2.0 0.00 0.37 0.37 91 1001.0
20221209151549 39 277 0.0 2.0 0.00 0.37 0.37 91 1000.9
20221209150041 39 246 0.0 1.0 0.01 0.37 0.37 91 1000.9
20221209144532 39 246 0.0 2.0 0.01 0.37 0.37 91 1001.2
20221209143046 39 238 0.0 2.0 0.02 0.37 0.37 91 1001.2
20221209141538 39 329 0.0 1.0 0.02 0.37 0.37 91 1001.1
20221209140032 39 329 1.0 4.0 0.01 0.36 0.36 91 1001.1
20221209134536 38 24 0.0 2.0 0.01 0.36 0.36 91 1001.3
20221209133028 38 13 1.0 3.0 0.00 0.35 0.35 91 1001.2
20221209131540 38 342 1.0 2.0 0.00 0.35 0.35 91 1001.4
20221209130025 38 44 0.0 2.0 0.00 0.35 0.35 92 1001.6
20221209124540 38 37 0.0 3.0 0.00 0.35 0.35 92 1001.9
20221209123040 38 36 1.0 3.0 0.00 0.35 0.35 92 1002.1
20221209121533 37 343 1.0 3.0 0.01 0.35 0.35 92 1002.4
20221209120017 37 24 1.0 3.0 0.01 0.35 0.35 91 1002.5
20221209114517 37 360 2.0 4.0 0.01 0.35 0.35 91 1002.6
20221209113015 37 36 1.0 5.0 0.01 0.35 0.35 92 1002.8
20221209111514 37 36 1.0 5.0 0.00 0.35 0.35 92 1003.0
20221209110012 37 10 2.0 4.0 0.00 0.35 0.35 92 1003.2
20221209104510 36 355 1.0 3.0 0.00 0.35 0.35 92 1003.7
20221209103007 36 24 1.0 2.0 0.02 0.35 0.35 92 1003.8
20221209101502 36 5 1.0 4.0 0.02 0.35 0.35 92 1004.0
20221209100102 35 30 1.0 4.0 0.03 0.35 0.35 92 1004.3
20221209094603 35 43 2.0 4.0 0.05 0.35 0.35 92 1004.4
20221209093055 35 32 1.0 2.0 0.05 0.33 0.33 91 1004.8
20221209091554 34 32 1.0 3.0 0.07 0.32 0.32 91 1005.0
20221209090050 34 38 1.0 3.0 0.10 0.31 0.31 91 1005.2
20221209084548 34 38 1.0 2.0 0.13 0.30 0.30 90 1005.4
20221209083106 35 38 0.0 2.0 0.13 0.28 0.28 89 1005.5
20221209081543 36 38 1.0 4.0 0.11 0.25 0.25 89 1005.4
20221209080043 37 34 2.0 4.0 0.08 0.21 0.21 89 1005.5
20221209074602 37 328 1.0 4.0 0.05 0.17 0.17 90 1005.6
20221209073055 38 40 0.0 2.0 0.04 0.16 0.16 90 1005.4
20221209071540 38 45 1.0 3.0 0.03 0.14 0.14 91 1005.2
20221209070039 38 45 2.0 4.0 0.04 0.13 0.13 92 1005.2
20221209064548 38 50 0.0 1.0 0.03 0.13 0.13 92 1005.3
20221209063035 38 50 0.0 1.0 0.02 0.12 0.12 92 1005.5
20221209061534 39 50 0.0 0.0 0.02 0.11 0.11 92 1005.8
20221209060033 39 50 0.0 1.0 0.01 0.09 0.09 92 1005.7
20221209054539 39 50 0.0 0.0 0.02 0.09 0.09 92 1005.9
20221209053030 39 50 0.0 2.0 0.02 0.09 0.09 92 1006.1
20221209051530 39 50 0.0 2.0 0.02 0.09 0.09 92 1006.3